Location: Wheeling
(40.0640°N, 80.7210°W)
Time: 20:51:14
(UTC-05:00)

ITAMSAT 1 - Pass Details

Date: 28 October 2021
Orbit: 784 x 796 km, 98.9° (Epoch: 01 December)

Event Time Altitude Azimuth Distance (km) Brightness Sun altitude
Rises 20:29:04 0° 187° (S) 3,258 10.9 -24.3°
Reaches altitude 10° 20:31:33 10° 196° (SSW) 2,335 10.2 -24.8°
Maximum altitude 20:36:15 36° 262° (W) 1,239 9.2 -25.7°
Drops below altitude 10° 20:41:00 10° 328° (NNW) 2,356 10.5 -26.6°
Sets 20:43:32 0° 337° (NNW) 3,291 11.2 -27.1°
